TimeEST,TemperatureF,Dew PointF,Humidity,Sea Level PressureIn,VisibilityMPH,Wind Direction,Wind SpeedMPH,Gust SpeedMPH,PrecipitationIn,Events,Conditions,WindDirDegrees,DateUTC
12:53 AM,61.0,54.0,78,30.05,10.0,SSW,13.8,-,N/A,,Scattered Clouds,200,2012-12-04 05:53:00
1:53 AM,62.1,54.0,75,30.04,10.0,South,19.6,29.9,N/A,,Clear,190,2012-12-04 06:53:00
2:53 AM,61.0,53.1,75,30.04,10.0,SSW,15.0,-,N/A,,Clear,210,2012-12-04 07:53:00
3:53 AM,61.0,53.1,75,30.03,10.0,SSW,17.3,28.8,N/A,,Scattered Clouds,210,2012-12-04 08:53:00
4:53 AM,61.0,52.0,72,30.03,10.0,SSW,15.0,26.5,N/A,,Clear,200,2012-12-04 09:53:00
6:53 AM,61.0,51.1,70,30.01,10.0,SSW,16.1,23.0,N/A,,Partly Cloudy,200,2012-12-04 11:53:00
7:53 AM,61.0,50.0,67,30.01,10.0,South,16.1,26.5,N/A,,Scattered Clouds,190,2012-12-04 12:53:00
8:53 AM,61.0,50.0,67,30.01,10.0,South,19.6,29.9,N/A,,Scattered Clouds,190,2012-12-04 13:53:00
9:53 AM,62.1,50.0,65,29.99,10.0,South,17.3,24.2,N/A,,Scattered Clouds,190,2012-12-04 14:53:00
10:53 AM,64.0,51.1,63,29.99,10.0,South,13.8,21.9,N/A,,Mostly Cloudy,190,2012-12-04 15:53:00
11:53 AM,64.0,51.1,63,29.95,10.0,South,11.5,-,N/A,,Overcast,190,2012-12-04 16:53:00
12:53 PM,63.0,52.0,67,29.94,10.0,SSW,12.7,21.9,0.00,,Overcast,200,2012-12-04 17:53:00
1:53 PM,61.0,53.1,75,29.92,10.0,SSW,9.2,-,0.01,,Overcast,210,2012-12-04 18:53:00
2:53 PM,60.1,53.1,78,29.91,10.0,SW,13.8,-,0.00,,Overcast,220,2012-12-04 19:53:00
3:28 PM,59.0,53.6,82,29.91,4.0,SW,9.2,-,0.02,Rain,Light Rain,220,2012-12-04 20:28:00
3:43 PM,53.6,51.8,94,29.94,2.5,West,13.8,26.5,0.06,Rain,Rain,280,2012-12-04 20:43:00
3:53 PM,54.0,52.0,93,29.94,2.5,West,11.5,19.6,0.08,Rain,Light Rain,270,2012-12-04 20:53:00
3:55 PM,53.6,51.8,94,29.93,3.0,West,10.4,19.6,0.00,Rain,Light Rain,260,2012-12-04 20:55:00
4:00 PM,53.6,51.8,94,29.94,2.5,West,12.7,19.6,0.00,Rain,Light Rain,260,2012-12-04 21:00:00
4:16 PM,51.8,51.8,100,29.93,2.5,West,9.2,17.3,0.00,Rain,Light Rain,270,2012-12-04 21:16:00
4:26 PM,51.8,51.8,100,29.94,4.0,West,8.1,-,0.01,Rain,Light Rain,260,2012-12-04 21:26:00
4:37 PM,51.8,51.8,100,29.94,1.8,West,10.4,-,0.07,Rain,Heavy Rain,260,2012-12-04 21:37:00
4:53 PM,52.0,51.1,97,29.95,2.0,West,6.9,-,0.12,Rain,Rain,270,2012-12-04 21:53:00
5:06 PM,51.8,51.8,100,29.95,3.0,West,9.2,17.3,0.03,Rain,Rain,270,2012-12-04 22:06:00
5:21 PM,51.8,51.8,100,29.97,2.5,West,8.1,-,0.07,Rain,Rain,260,2012-12-04 22:21:00
5:31 PM,51.8,50.0,94,29.97,4.0,SW,6.9,-,0.08,Rain,Light Rain,230,2012-12-04 22:31:00
5:39 PM,51.8,51.8,100,29.97,7.0,WSW,8.1,-,0.08,Rain,Light Rain,250,2012-12-04 22:39:00
5:53 PM,52.0,50.0,93,29.98,4.0,WSW,5.8,-,0.10,Rain,Rain,250,2012-12-04 22:53:00
6:00 PM,51.8,50.0,94,29.97,4.0,WSW,6.9,-,0.02,Rain,Rain,250,2012-12-04 23:00:00
6:12 PM,51.8,50.0,94,29.97,8.0,West,6.9,-,0.03,Rain,Light Rain,270,2012-12-04 23:12:00
6:22 PM,51.8,48.2,88,29.97,10.0,WSW,6.9,-,0.03,,Overcast,240,2012-12-04 23:22:00
6:53 PM,51.1,48.9,92,29.99,6.0,SW,6.9,-,0.04,Rain,Light Rain,230,2012-12-04 23:53:00
7:00 PM,51.8,48.2,88,29.99,6.0,WSW,9.2,-,0.01,Rain,Light Rain,240,2012-12-05 00:00:00
7:53 PM,48.0,45.0,89,30.00,10.0,SW,10.4,-,0.08,Rain,Light Rain,220,2012-12-05 00:53:00
8:53 PM,48.0,44.1,86,30.01,10.0,WSW,12.7,24.2,0.01,Rain,Light Rain,240,2012-12-05 01:53:00
9:53 PM,46.0,39.0,76,30.01,10.0,SW,13.8,21.9,0.00,,Overcast,230,2012-12-05 02:53:00
10:53 PM,46.0,39.9,79,30.02,10.0,SW,13.8,23.0,N/A,,Clear,230,2012-12-05 03:53:00
11:53 PM,45.0,41.0,86,30.03,10.0,WSW,13.8,23.0,N/A,,Partly Cloudy,240,2012-12-05 04:53:00